(177684) = 2005 EJ253

Discovered at Anderson Mesa on 2005-03-11 by LONEOS.

Orbit

Orbit type: Main Belt

Note: WebGL enabled browser required.

epoch2024-03-31.0
epoch JD2460400.5
perihelion date2023-12-01.97614
perihelion JD2460280.47614
argument of perihelion (°)206.15658
ascending node (°)251.57406
inclination (°)3.22579
eccentricity0.1202060
perihelion distance (AU)1.9069103
Tisserand w.r.t. Jupiter3.7
ΔV w.r.t. Earth (km/sec)8.5
semimajor axis (AU)2.1674508
mean anomaly (°)37.07213
mean daily motion (°/day)0.30887300
aphelion distance (AU)2.428
period (years)3.19
P-vector [x]-0.13385350
P-vector [y]0.91880800
P-vector [z]0.37131537
Q-vector [x]-0.98956211
Q-vector [y]-0.10373755
Q-vector [z]-0.10002674
absolute magnitude17.25
phase slope0.15
uncertainty0
referenceMPEC 2024-C46
observations used478
oppositions14
arc length (days)8533
first opposition used2000
last opposition used2024
residual rms (arc-secs)0.78
perturbers coarse indicatorM-v
perturbers precise indicator003Ek
first observation date used2000-09-24.0
last observation date used2024-02-04.0
computer nameMPCLINUX
JD of orbit computation2456700.228115
perihelion JD uncertainty (days)9.0897E-05
argument of perihelion uncertainty (°)7.8648E-05
ascending node uncertainty (°)7.2947E-05
inclination uncertainty (°)5.6511E-06
eccentricity uncertainty 6.2391E-08
perihelion distance uncertainty (AU)1.4498E-07
Minimum Orbit Intersection Distances (in AU)
for orbit epoch: 2460400.5, reference: E2024-GF4
Mercury1.59751
Venus1.18869
Earth0.9248
Mars0.3151
Jupiter2.70655
Saturn7.13133
Uranus16.3553
Neptune27.7088

Observations

493 total observations over interval: 2000 09 24.17106 – 2024 02 04.430253
These data are available for download (format description).

Date (UT) J2000 RA J2000 Dec Magn Location Ref
2000 09 24.17106 22 34 39.17 -02 54 18.3 20.5 V 691 – Steward Observatory, Kitt Peak-Spacewatch MPS 130286
2000 09 24.19211 22 34 38.14 -02 54 26.0 20.4 V 691 – Steward Observatory, Kitt Peak-Spacewatch MPS 130286
2000 09 24.21303 22 34 37.09 -02 54 33.9 20.6 V 691 – Steward Observatory, Kitt Peak-Spacewatch MPS 130286
2002 04 04.26718 12 03 22.12 -06 12 55.5 19.8   644 – Palomar Mountain/NEAT MPS 130286
2002 04 04.28831 12 03 20.94 -06 12 45.4 19.9   644 – Palomar Mountain/NEAT MPS 130286
2002 04 04.31044 12 03 19.68 -06 12 35.7 19.8   644 – Palomar Mountain/NEAT MPS 130286
2002 04 16.19339 11 54 12.35 -04 47 42.9 20.4   704 – Lincoln Laboratory ETS, New Mexico MPS 130286
2002 04 16.20737 11 54 11.76 -04 47 36.7 19.9   704 – Lincoln Laboratory ETS, New Mexico MPS 130286
2002 04 16.22134 11 54 11.22 -04 47 32.1 19.6   704 – Lincoln Laboratory ETS, New Mexico MPS 130286
2005 01 20.37516 10 20 47.75 +04 29 46.6 18.8 R 699 – Lowell Observatory-LONEOS MPS 130286
2005 01 20.39951 10 20 46.84 +04 29 46.6   699 – Lowell Observatory-LONEOS MPS 130286
2005 01 20.42384 10 20 45.94 +04 29 43.9   699 – Lowell Observatory-LONEOS MPS 130286
2005 01 20.44819 10 20 45.18 +04 29 43.3   699 – Lowell Observatory-LONEOS MPS 130286
2005 02 02.31512 10 11 34.07 +04 49 46.4 19.0   644 – Palomar Mountain/NEAT MPS 130286
2005 02 02.35768 10 11 31.68 +04 49 51.9 19.7   704 – Lincoln Laboratory ETS, New Mexico MPS 130286
2005 02 02.37075 10 11 30.80 +04 49 55.8 19.5   704 – Lincoln Laboratory ETS, New Mexico MPS 130286
2005 02 02.38112 10 11 30.48 +04 49 58.0 18.8   644 – Palomar Mountain/NEAT MPS 130286
2005 02 02.38437 10 11 30.09 +04 49 57.9 19.3   704 – Lincoln Laboratory ETS, New Mexico MPS 130286
2005 02 02.41208 10 11 28.58 +04 50 03.1 19.3   704 – Lincoln Laboratory ETS, New Mexico MPS 130286
2005 02 02.44799 10 11 26.70 +04 50 09.7 19.0   644 – Palomar Mountain/NEAT MPS 130286
2005 02 04.42223 10 09 38.60 +04 56 28.6 18.9 R 699 – Lowell Observatory-LONEOS MPS 130286
2005 02 04.44655 10 09 37.22 +04 56 32.9   699 – Lowell Observatory-LONEOS MPS 130286
2005 02 04.47085 10 09 35.80 +04 56 38.2   699 – Lowell Observatory-LONEOS MPS 130286
2005 02 04.49518 10 09 34.17 +04 56 41.8   699 – Lowell Observatory-LONEOS MPS 130286
2005 03 03.22046 09 43 17.15 +07 08 37.6 19.1 R 703 – Catalina Sky Survey MPS 130286
2005 03 03.22897 09 43 16.71 +07 08 40.4 19.1 R 703 – Catalina Sky Survey MPS 130286
2005 03 03.23751 09 43 16.24 +07 08 43.3 18.8 R 703 – Catalina Sky Survey MPS 130286
2005 03 03.24604 09 43 15.79 +07 08 45.9 19.2 R 703 – Catalina Sky Survey MPS 130286
2005 03 11.17899 09 37 30.24 +07 49 14.0 19.6 R 699 – Lowell Observatory-LONEOS MPS 129376
2005 03 11.19604 09 37 29.52 +07 49 19.7   699 – Lowell Observatory-LONEOS MPS 129376
2005 03 11.23180 09 37 28.39 +07 49 30.1   699 – Lowell Observatory-LONEOS MPS 129376
2005 03 11.24883 09 37 27.61 +07 49 34.6   699 – Lowell Observatory-LONEOS MPS 129376
2005 03 17.24938 09 34 26.13 +08 16 04.1 19.2 R 703 – Catalina Sky Survey MPS 129376
2005 03 17.25744 09 34 25.82 +08 16 05.1 19.4 R 703 – Catalina Sky Survey MPS 129376
2005 03 17.26553 09 34 25.57 +08 16 06.8 19.4 R 703 – Catalina Sky Survey MPS 129376
2005 03 17.27358 09 34 25.35 +08 16 08.8 19.0 R 703 – Catalina Sky Survey MPS 129376
2007 11 05.39781 07 25 16.78 +21 12 23.7 20.1 V G96 – Mt. Lemmon Survey MPS 224888
2007 11 05.40336 07 25 17.07 +21 12 22.5 20.4 V G96 – Mt. Lemmon Survey MPS 224888
2007 11 05.40891 07 25 17.36 +21 12 21.0 20.4 V G96 – Mt. Lemmon Survey MPS 224888
2007 11 05.41457 07 25 17.65 +21 12 19.6 20.5 V G96 – Mt. Lemmon Survey MPS 224888
2007 11 19.37727 07 34 09.15 +20 17 57.0 20.1 V G96 – Mt. Lemmon Survey MPS 228286
2007 11 19.38392 07 34 09.30 +20 17 55.5 20.2 V G96 – Mt. Lemmon Survey MPS 228286
2007 11 19.39056 07 34 09.44 +20 17 54.2 20.1 V G96 – Mt. Lemmon Survey MPS 228286
2007 11 19.39723 07 34 09.55 +20 17 52.8 19.9 V G96 – Mt. Lemmon Survey MPS 228286
2007 12 04.38877 07 35 16.69 +19 30 53.3 19.8 V G96 – Mt. Lemmon Survey MPS 229816
2007 12 04.39473 07 35 16.58 +19 30 52.4 19.9 V G96 – Mt. Lemmon Survey MPS 229816
2007 12 04.40072 07 35 16.47 +19 30 51.6 19.9 V G96 – Mt. Lemmon Survey MPS 229816
2007 12 04.40677 07 35 16.36 +19 30 50.6 19.7 V G96 – Mt. Lemmon Survey MPS 229816
2007 12 04.44867 07 35 15.61 +19 30 44.5 19.7 V 691 – Steward Observatory, Kitt Peak-Spacewatch MPS 229816
2007 12 04.46628 07 35 15.29 +19 30 41.2 19.7 V 691 – Steward Observatory, Kitt Peak-Spacewatch MPS 229816
2007 12 04.48390 07 35 15.00 +19 30 38.6 19.7 V 691 – Steward Observatory, Kitt Peak-Spacewatch MPS 229816
2007 12 16.43848 07 29 25.86 +19 05 28.7 19.4 V 691 – Steward Observatory, Kitt Peak-Spacewatch MPS 231345
2007 12 16.45957 07 29 24.87 +19 05 26.7 19.3 V 691 – Steward Observatory, Kitt Peak-Spacewatch MPS 231345
2007 12 16.48064 07 29 23.91 +19 05 24.2 19.5 V 691 – Steward Observatory, Kitt Peak-Spacewatch MPS 231345
2007 12 20.42424 07 26 17.83 +18 59 33.7 19.4 V 691 – Steward Observatory, Kitt Peak-Spacewatch MPS 231799
2007 12 20.44190 07 26 16.87 +18 59 32.3 19.4 V 691 – Steward Observatory, Kitt Peak-Spacewatch MPS 231799
2007 12 20.45956 07 26 15.90 +18 59 31.0 19.1 V 691 – Steward Observatory, Kitt Peak-Spacewatch MPS 231799
2007 12 30.38917 07 16 30.64 +18 49 24.4 18.9   704 – Lincoln Laboratory ETS, New Mexico MPS 232619
2007 12 30.40213 07 16 29.78 +18 49 23.6 18.8   704 – Lincoln Laboratory ETS, New Mexico MPS 232619
2007 12 30.41509 07 16 28.89 +18 49 23.3 19.1   704 – Lincoln Laboratory ETS, New Mexico MPS 232619
2007 12 30.42806 07 16 28.04 +18 49 23.8 19.2   704 – Lincoln Laboratory ETS, New Mexico MPS 232619
2007 12 30.44124 07 16 27.06 +18 49 22.9 19.5   704 – Lincoln Laboratory ETS, New Mexico MPS 232619
2008 02 08.10098 06 41 43.30 +18 46 22.0 19.8 V 691 – Steward Observatory, Kitt Peak-Spacewatch MPS 236238
2008 02 08.11416 06 41 43.05 +18 46 22.3 19.7 V 691 – Steward Observatory, Kitt Peak-Spacewatch MPS 236238
2008 02 08.12734 06 41 42.80 +18 46 22.5 19.7 V 691 – Steward Observatory, Kitt Peak-Spacewatch MPS 236238
2008 02 10.09902 06 41 16.10 +18 46 57.7 19.6 V 691 – Steward Observatory, Kitt Peak-Spacewatch MPS 237538
2008 02 10.12321 06 41 15.76 +18 46 58.2 19.7 V 691 – Steward Observatory, Kitt Peak-Spacewatch MPS 237538
2008 02 10.14741 06 41 15.35 +18 46 58.8 20.7 V 691 – Steward Observatory, Kitt Peak-Spacewatch MPS 237538
2010 10 29.27929 04 19 44.77 +23 31 05.1 19.8 V 691 – Steward Observatory, Kitt Peak-Spacewatch MPS 355021
2010 10 29.29704 04 19 44.14 +23 31 02.5 19.8 V 691 – Steward Observatory, Kitt Peak-Spacewatch MPS 355021
2010 10 29.31478 04 19 43.54 +23 30 59.7 19.8 V 691 – Steward Observatory, Kitt Peak-Spacewatch MPS 355021
2010 11 02.26185 04 17 20.79 +23 18 55.2   691 – Steward Observatory, Kitt Peak-Spacewatch MPS 357130
2010 11 02.27957 04 17 20.02 +23 18 51.6   691 – Steward Observatory, Kitt Peak-Spacewatch MPS 357130
2010 11 02.29727 04 17 19.34 +23 18 45.8   691 – Steward Observatory, Kitt Peak-Spacewatch MPS 357130
2010 11 04.08168 04 16 03.29 +23 12 36.1 19.4 V J75 – OAM Observatory, La Sagra MPS 355021
2010 11 04.09462 04 16 02.72 +23 12 33.3 19.0 V J75 – OAM Observatory, La Sagra MPS 355021
2010 11 04.10757 04 16 02.07 +23 12 29.7 19.5 V J75 – OAM Observatory, La Sagra MPS 355021
2010 11 06.23829 04 14 23.69 +23 04 31.3   691 – Steward Observatory, Kitt Peak-Spacewatch MPS 357130
2010 11 06.25603 04 14 22.79 +23 04 27.1   691 – Steward Observatory, Kitt Peak-Spacewatch MPS 357130
2010 11 06.27721 04 14 21.69 +23 04 22.4   691 – Steward Observatory, Kitt Peak-Spacewatch MPS 357130
2010 11 06.34867 04 14 18.01 +23 04 05.9 20.2   704 – Lincoln Laboratory ETS, New Mexico MPS 357130
2010 11 06.36132 04 14 17.33 +23 04 03.3 20.0   704 – Lincoln Laboratory ETS, New Mexico MPS 357130
2010 11 07.583067 04 13 16.220 +22 59 10.62 19.95 g F51 – Pan-STARRS 1, Haleakala MPS 365069
2010 11 07.594936 04 13 15.585 +22 59 07.50 19.95 g F51 – Pan-STARRS 1, Haleakala MPS 365069
2010 11 26.25631 03 54 09.46 +21 23 05.8 18.8 V G96 – Mt. Lemmon Survey MPS 358572
2010 11 26.26700 03 54 08.74 +21 23 01.9 18.8 V G96 – Mt. Lemmon Survey MPS 358572
